User: anonymous   Login
Location: Caltech
(34.1382°N, 118.1253°W)
Time: 04:32:03
(UTC-07:00)
Language:

Cosmos 1606 - Orbit

View from above orbital plane
View from above orbital plane
View from above satellite
View from above satellite

Ground track
Ground track

The orbit data is extracted from the following two-line orbital elements,

1 15369U 84111A   16208.16615505  .00000529  00000-0  26599-4 0  9996
2 15369  82.5275  83.1268 0016987 311.7963  48.1817 15.14953084731093
Epoch (UTC): 26 July 2016 03:59:15
Eccentricity: 0.0016987
inclination: 82.5275°
perigee height: 509 km
apogee height: 533 km
right ascension of ascending node: 83.1268°
argument of perigee: 311.7963°
revolutions per day: 15.14953084
mean anomaly at epoch: 48.1817°
orbit number at epoch: 73109

The dashed part of the orbit path shows where the satellite is in the earth's shadow,  

DLR